Year,Month,Day,Hour,Minute,Value (Times are PST for temperature in C)
2018,04,23,00,00,7.60
2018,04,23,00,01,7.60
2018,04,23,00,02,7.60
2018,04,23,00,03,7.60
2018,04,23,00,04,7.60
2018,04,23,00,05,7.60
2018,04,23,00,06,7.60
2018,04,23,00,07,7.60
2018,04,23,00,08,7.60
2018,04,23,00,09,7.60
2018,04,23,00,10,7.60
2018,04,23,00,11,7.60
2018,04,23,00,12,7.60
2018,04,23,00,13,7.60
2018,04,23,00,14,7.60
2018,04,23,00,15,7.60
2018,04,23,00,16,7.60
2018,04,23,00,17,7.60
2018,04,23,00,18,7.60
2018,04,23,00,19,7.60
2018,04,23,00,20,7.60
2018,04,23,00,21,7.60
2018,04,23,00,22,7.60
2018,04,23,00,23,7.60
2018,04,23,00,24,7.60
2018,04,23,00,25,7.60
2018,04,23,00,26,7.60
2018,04,23,00,27,7.60
2018,04,23,00,28,7.60
2018,04,23,00,29,7.50
2018,04,23,00,30,7.50
2018,04,23,00,31,7.50
2018,04,23,00,32,7.50
2018,04,23,00,33,7.50
2018,04,23,00,34,7.40
2018,04,23,00,35,7.50
2018,04,23,00,36,7.40
2018,04,23,00,37,7.40
2018,04,23,00,38,7.50
2018,04,23,00,39,7.50
2018,04,23,00,40,7.50
2018,04,23,00,41,7.50
2018,04,23,00,42,7.50
2018,04,23,00,43,7.50
2018,04,23,00,44,7.40
2018,04,23,00,45,7.40
2018,04,23,00,46,7.40
2018,04,23,00,47,7.40
2018,04,23,00,48,7.40
2018,04,23,00,49,7.40
2018,04,23,00,50,7.40
2018,04,23,00,51,7.50
2018,04,23,00,52,7.50
2018,04,23,00,53,7.50
2018,04,23,00,54,7.50
2018,04,23,00,55,7.60
2018,04,23,00,56,7.60
2018,04,23,00,57,7.70
2018,04,23,00,58,7.70
2018,04,23,00,59,7.70
2018,04,23,01,00,7.70
2018,04,23,01,01,7.70
2018,04,23,01,02,7.70
2018,04,23,01,03,7.70
2018,04,23,01,04,7.70
2018,04,23,01,05,7.70
2018,04,23,01,06,7.70
2018,04,23,01,07,7.70
2018,04,23,01,08,7.70
2018,04,23,01,09,7.70
2018,04,23,01,10,7.70
2018,04,23,01,11,7.70
2018,04,23,01,12,7.70
2018,04,23,01,13,7.60
2018,04,23,01,14,7.60
2018,04,23,01,15,7.60
2018,04,23,01,16,7.60
2018,04,23,01,17,7.60
2018,04,23,01,18,7.60
2018,04,23,01,19,7.60
2018,04,23,01,20,7.60
2018,04,23,01,21,7.50
2018,04,23,01,22,7.50
2018,04,23,01,23,7.40
2018,04,23,01,24,7.40
2018,04,23,01,25,7.40
2018,04,23,01,26,7.40
2018,04,23,01,27,7.30
2018,04,23,01,28,7.30
2018,04,23,01,29,7.20
2018,04,23,01,30,7.10
2018,04,23,01,31,7.00
2018,04,23,01,32,7.00
2018,04,23,01,33,6.90
2018,04,23,01,34,6.80
2018,04,23,01,35,6.70
2018,04,23,01,36,6.60
2018,04,23,01,37,6.60
2018,04,23,01,38,6.50
2018,04,23,01,39,6.40
2018,04,23,01,40,6.30
2018,04,23,01,41,6.30
2018,04,23,01,42,6.30
2018,04,23,01,43,6.30
2018,04,23,01,44,6.30
2018,04,23,01,45,6.30
2018,04,23,01,46,6.30
2018,04,23,01,47,6.30
2018,04,23,01,48,6.40
2018,04,23,01,49,6.40
2018,04,23,01,50,6.40
2018,04,23,01,51,6.40
2018,04,23,01,52,6.40
2018,04,23,01,53,6.40
2018,04,23,01,54,6.40
2018,04,23,01,55,6.40
2018,04,23,01,56,6.40
2018,04,23,01,57,6.40
2018,04,23,01,58,6.40
2018,04,23,01,59,6.50
2018,04,23,02,00,6.50
2018,04,23,02,01,6.50
2018,04,23,02,02,6.60
2018,04,23,02,03,6.60
2018,04,23,02,04,6.60
2018,04,23,02,05,6.60
2018,04,23,02,06,6.60
2018,04,23,02,07,6.60
2018,04,23,02,08,6.70
2018,04,23,02,09,6.70
2018,04,23,02,10,6.70
2018,04,23,02,11,6.70
2018,04,23,02,12,6.70
2018,04,23,02,13,6.80
2018,04,23,02,14,6.80
2018,04,23,02,15,6.80
2018,04,23,02,16,6.80
2018,04,23,02,17,6.80
2018,04,23,02,18,6.80
2018,04,23,02,19,6.80
2018,04,23,02,20,6.80
2018,04,23,02,21,6.90
2018,04,23,02,22,6.90
2018,04,23,02,23,6.90
2018,04,23,02,24,6.90
2018,04,23,02,25,6.90
2018,04,23,02,26,6.90
2018,04,23,02,27,6.90
2018,04,23,02,28,6.90
2018,04,23,02,29,6.90
2018,04,23,02,30,6.90
2018,04,23,02,31,6.90
2018,04,23,02,32,6.90
2018,04,23,02,33,6.90
2018,04,23,02,34,6.90
2018,04,23,02,35,6.90
2018,04,23,02,36,6.90
2018,04,23,02,37,6.90
2018,04,23,02,38,6.90
2018,04,23,02,39,6.90
2018,04,23,02,40,6.90
2018,04,23,02,41,6.90
2018,04,23,02,42,6.90
2018,04,23,02,43,6.80
2018,04,23,02,44,6.80
2018,04,23,02,45,6.80
2018,04,23,02,46,6.80
2018,04,23,02,47,6.70
2018,04,23,02,48,6.70
2018,04,23,02,49,6.70
2018,04,23,02,50,6.70
2018,04,23,02,51,6.70
2018,04,23,02,52,6.70
2018,04,23,02,53,6.70
2018,04,23,02,54,6.70
2018,04,23,02,55,6.70
2018,04,23,02,56,6.80
2018,04,23,02,57,6.80
2018,04,23,02,58,6.80
2018,04,23,02,59,6.80
2018,04,23,03,00,6.90
2018,04,23,03,01,6.90
2018,04,23,03,02,6.90
2018,04,23,03,03,7.00
2018,04,23,03,04,7.00
2018,04,23,03,05,7.00
2018,04,23,03,06,7.10
2018,04,23,03,07,7.10
2018,04,23,03,08,7.10
2018,04,23,03,09,7.10
2018,04,23,03,10,7.20
2018,04,23,03,11,7.20
2018,04,23,03,12,7.20
2018,04,23,03,13,7.20
2018,04,23,03,14,7.20
2018,04,23,03,15,7.20
2018,04,23,03,16,7.20
2018,04,23,03,17,7.20
2018,04,23,03,18,7.30
2018,04,23,03,19,7.30
2018,04,23,03,20,7.30
2018,04,23,03,21,7.30
2018,04,23,03,22,7.30
2018,04,23,03,23,7.30
2018,04,23,03,24,7.30
2018,04,23,03,25,7.30
2018,04,23,03,26,7.30
2018,04,23,03,27,7.30
2018,04,23,03,28,7.30
2018,04,23,03,29,7.30
2018,04,23,03,30,7.30
2018,04,23,03,31,7.20
2018,04,23,03,32,7.20
2018,04,23,03,33,7.20
2018,04,23,03,34,7.10
2018,04,23,03,35,7.10
2018,04,23,03,36,7.10
2018,04,23,03,37,7.10
2018,04,23,03,38,7.10
2018,04,23,03,39,7.10
2018,04,23,03,40,7.10
2018,04,23,03,41,7.10
2018,04,23,03,42,7.10
2018,04,23,03,43,7.10
2018,04,23,03,44,7.10
2018,04,23,03,45,7.10
2018,04,23,03,46,7.10
2018,04,23,03,47,7.10
2018,04,23,03,48,7.10
2018,04,23,03,49,7.10
2018,04,23,03,50,7.10
2018,04,23,03,51,7.10
2018,04,23,03,52,7.10
2018,04,23,03,53,7.10
2018,04,23,03,54,7.10
2018,04,23,03,55,7.10
2018,04,23,03,56,7.10
2018,04,23,03,57,7.00
2018,04,23,03,58,7.00
2018,04,23,03,59,7.00
2018,04,23,04,00,7.00
2018,04,23,04,01,7.00
2018,04,23,04,02,7.00
2018,04,23,04,03,7.00
2018,04,23,04,04,7.00
2018,04,23,04,05,7.00
2018,04,23,04,06,7.00
2018,04,23,04,07,7.10
2018,04,23,04,08,7.10
2018,04,23,04,09,7.00
2018,04,23,04,10,7.00
2018,04,23,04,11,6.90
2018,04,23,04,12,6.90
2018,04,23,04,13,6.90
2018,04,23,04,14,6.90
2018,04,23,04,15,6.90
2018,04,23,04,16,6.90
2018,04,23,04,17,6.90
2018,04,23,04,18,6.90
2018,04,23,04,19,6.90
2018,04,23,04,20,6.90
2018,04,23,04,21,7.00
2018,04,23,04,22,7.00
2018,04,23,04,23,7.10
2018,04,23,04,24,7.10
2018,04,23,04,25,7.10
2018,04,23,04,26,7.20
2018,04,23,04,27,7.20
2018,04,23,04,28,7.20
2018,04,23,04,29,7.20
2018,04,23,04,30,7.10
2018,04,23,04,31,7.10
2018,04,23,04,32,7.10
2018,04,23,04,33,7.00
2018,04,23,04,34,7.00
2018,04,23,04,35,7.00
2018,04,23,04,36,7.00
2018,04,23,04,37,7.10
2018,04,23,04,38,7.10
2018,04,23,04,39,7.00
2018,04,23,04,40,7.00
2018,04,23,04,41,7.00
2018,04,23,04,42,6.90
2018,04,23,04,43,6.90
2018,04,23,04,44,6.80
2018,04,23,04,45,6.80
2018,04,23,04,46,6.80
2018,04,23,04,47,6.80
2018,04,23,04,48,6.70
2018,04,23,04,49,6.70
2018,04,23,04,50,6.70
2018,04,23,04,51,6.60
2018,04,23,04,52,6.60
2018,04,23,04,53,6.60
2018,04,23,04,54,6.60
2018,04,23,04,55,6.60
2018,04,23,04,56,6.60
2018,04,23,04,57,6.60
2018,04,23,04,58,6.60
2018,04,23,04,59,6.60
2018,04,23,05,00,6.60
2018,04,23,05,01,6.60
2018,04,23,05,02,6.60
2018,04,23,05,03,6.60
2018,04,23,05,04,6.50
2018,04,23,05,05,6.40
2018,04,23,05,06,6.40
2018,04,23,05,07,6.30
2018,04,23,05,08,6.30
2018,04,23,05,09,6.30
2018,04,23,05,10,6.30
2018,04,23,05,11,6.20
2018,04,23,05,12,6.20
2018,04,23,05,13,6.20
2018,04,23,05,14,6.20
2018,04,23,05,15,6.20
2018,04,23,05,16,6.10
2018,04,23,05,17,6.10
2018,04,23,05,18,6.10
2018,04,23,05,19,6.00
2018,04,23,05,20,6.00
2018,04,23,05,21,6.00
2018,04,23,05,22,5.90
2018,04,23,05,23,5.90
2018,04,23,05,24,5.90
2018,04,23,05,25,5.80
2018,04,23,05,26,5.80
2018,04,23,05,27,5.80
2018,04,23,05,28,5.80
2018,04,23,05,29,5.80
2018,04,23,05,30,5.70
2018,04,23,05,31,5.70
2018,04,23,05,32,5.70
2018,04,23,05,33,5.70
2018,04,23,05,34,5.70
2018,04,23,05,35,5.60
2018,04,23,05,36,5.60
2018,04,23,05,37,5.60
2018,04,23,05,38,5.60
2018,04,23,05,39,5.60
2018,04,23,05,40,5.50
2018,04,23,05,41,5.50
2018,04,23,05,42,5.50
2018,04,23,05,43,5.40
2018,04,23,05,44,5.40
2018,04,23,05,45,5.40
2018,04,23,05,46,5.40
2018,04,23,05,47,5.40
2018,04,23,05,48,5.40
2018,04,23,05,49,5.30
2018,04,23,05,50,5.30
2018,04,23,05,51,5.30
2018,04,23,05,52,5.30
2018,04,23,05,53,5.30
2018,04,23,05,54,5.30
2018,04,23,05,55,5.30
2018,04,23,05,56,5.30
2018,04,23,05,57,5.30
2018,04,23,05,58,5.30
2018,04,23,05,59,5.30
2018,04,23,06,00,5.30
2018,04,23,06,01,5.30
2018,04,23,06,02,5.30
2018,04,23,06,03,5.30
2018,04,23,06,04,5.30
2018,04,23,06,05,5.30
2018,04,23,06,06,5.30
2018,04,23,06,07,5.20
2018,04,23,06,08,5.20
2018,04,23,06,09,5.20
2018,04,23,06,10,5.20
2018,04,23,06,11,5.20
2018,04,23,06,12,5.20
2018,04,23,06,13,5.20
2018,04,23,06,14,5.20
2018,04,23,06,15,5.20
2018,04,23,06,16,5.20
2018,04,23,06,17,5.30
2018,04,23,06,18,5.30
2018,04,23,06,19,5.30
2018,04,23,06,20,5.20
2018,04,23,06,21,5.20
2018,04,23,06,22,5.20
2018,04,23,06,23,5.20
2018,04,23,06,24,5.30
2018,04,23,06,25,5.30
2018,04,23,06,26,5.30
2018,04,23,06,27,5.30
2018,04,23,06,28,5.30
2018,04,23,06,29,5.30
2018,04,23,06,30,5.30
2018,04,23,06,31,5.30
2018,04,23,06,32,5.30
2018,04,23,06,33,5.30
2018,04,23,06,34,5.30
2018,04,23,06,35,5.30
2018,04,23,06,36,5.30
2018,04,23,06,37,5.30
2018,04,23,06,38,5.30
2018,04,23,06,39,5.30
2018,04,23,06,40,5.30
2018,04,23,06,41,5.30
2018,04,23,06,42,5.30
2018,04,23,06,43,5.40
2018,04,23,06,44,5.40
2018,04,23,06,45,5.40
2018,04,23,06,46,5.40
2018,04,23,06,47,5.40
2018,04,23,06,48,5.50
2018,04,23,06,49,5.50
2018,04,23,06,50,5.50
2018,04,23,06,51,5.50
2018,04,23,06,52,5.60
2018,04,23,06,53,5.60
2018,04,23,06,54,5.60
2018,04,23,06,55,5.60
2018,04,23,06,56,5.60
2018,04,23,06,57,5.60
2018,04,23,06,58,5.60
2018,04,23,06,59,5.60
2018,04,23,07,00,5.60
2018,04,23,07,01,5.60
2018,04,23,07,02,5.60
2018,04,23,07,03,5.60
2018,04,23,07,04,5.60
2018,04,23,07,05,5.60
2018,04,23,07,06,5.60
2018,04,23,07,07,5.60
2018,04,23,07,08,5.60
2018,04,23,07,09,5.50
2018,04,23,07,10,5.50
2018,04,23,07,11,5.50
2018,04,23,07,12,5.50
2018,04,23,07,13,5.50
2018,04,23,07,14,5.50
2018,04,23,07,15,5.60
2018,04,23,07,16,5.60
2018,04,23,07,17,5.60
2018,04,23,07,18,5.60
2018,04,23,07,19,5.70
2018,04,23,07,20,5.70
2018,04,23,07,21,5.80
2018,04,23,07,22,5.80
2018,04,23,07,23,5.90
2018,04,23,07,24,5.90
2018,04,23,07,25,6.00
2018,04,23,07,26,6.00
2018,04,23,07,27,6.00
2018,04,23,07,28,6.10
2018,04,23,07,29,6.10
2018,04,23,07,30,6.20
2018,04,23,07,31,6.20
2018,04,23,07,32,6.20
2018,04,23,07,33,6.30
2018,04,23,07,34,6.30
2018,04,23,07,35,6.30
2018,04,23,07,36,6.30
2018,04,23,07,37,6.40
2018,04,23,07,38,6.40
2018,04,23,07,39,6.40
2018,04,23,07,40,6.50
2018,04,23,07,41,6.50
2018,04,23,07,42,6.60
2018,04,23,07,43,6.60
2018,04,23,07,44,6.70
2018,04,23,07,45,6.70
2018,04,23,07,46,6.80
2018,04,23,07,47,6.80
2018,04,23,07,48,6.90
2018,04,23,07,49,6.90
2018,04,23,07,50,7.00
2018,04,23,07,51,7.00
2018,04,23,07,52,7.10
2018,04,23,07,53,7.10
2018,04,23,07,54,7.20
2018,04,23,07,55,7.20
2018,04,23,07,56,7.30
2018,04,23,07,57,7.40
2018,04,23,07,58,7.40
2018,04,23,07,59,7.50
2018,04,23,08,00,7.60
2018,04,23,08,01,7.60
2018,04,23,08,02,7.70
2018,04,23,08,03,7.80
2018,04,23,08,04,7.80
2018,04,23,08,05,7.80
2018,04,23,08,06,7.90
2018,04,23,08,07,7.90
2018,04,23,08,08,8.00
2018,04,23,08,09,8.10
2018,04,23,08,10,8.10
2018,04,23,08,11,8.20
2018,04,23,08,12,8.20
2018,04,23,08,13,8.30
2018,04,23,08,14,8.30
2018,04,23,08,15,8.40
2018,04,23,08,16,8.40
2018,04,23,08,17,8.40
2018,04,23,08,18,8.50
2018,04,23,08,19,8.50
2018,04,23,08,20,8.60
2018,04,23,08,21,8.60
2018,04,23,08,22,8.60
2018,04,23,08,23,8.60
2018,04,23,08,24,8.70
2018,04,23,08,25,8.70
2018,04,23,08,26,8.70
2018,04,23,08,27,8.70
2018,04,23,08,28,8.80
2018,04,23,08,29,8.80
2018,04,23,08,30,8.80
2018,04,23,08,31,8.90
2018,04,23,08,32,8.90
2018,04,23,08,33,8.90
2018,04,23,08,34,9.00
2018,04,23,08,35,9.00
2018,04,23,08,36,9.10
2018,04,23,08,37,9.10
2018,04,23,08,38,9.10
2018,04,23,08,39,9.10
2018,04,23,08,40,9.20
2018,04,23,08,41,9.20
2018,04,23,08,42,9.20
2018,04,23,08,43,9.20
2018,04,23,08,44,9.20
2018,04,23,08,45,9.30
2018,04,23,08,46,9.30
2018,04,23,08,47,9.30
2018,04,23,08,48,9.30
2018,04,23,08,49,9.30
2018,04,23,08,50,9.40
2018,04,23,08,51,9.40
2018,04,23,08,52,9.40
2018,04,23,08,53,9.40
2018,04,23,08,54,9.50
2018,04,23,08,55,9.50
2018,04,23,08,56,9.50
2018,04,23,08,57,9.50
2018,04,23,08,58,9.50
2018,04,23,08,59,9.50
2018,04,23,09,00,9.50
2018,04,23,09,01,9.50
2018,04,23,09,02,9.60
2018,04,23,09,03,9.60
2018,04,23,09,04,9.60
2018,04,23,09,05,9.60
2018,04,23,09,06,9.60
2018,04,23,09,07,9.60
2018,04,23,09,08,9.60
2018,04,23,09,09,9.60
2018,04,23,09,10,9.60
2018,04,23,09,11,9.60
2018,04,23,09,12,9.60
2018,04,23,09,13,9.60
2018,04,23,09,14,9.60
2018,04,23,09,15,9.60
2018,04,23,09,16,9.60
2018,04,23,09,17,9.70
2018,04,23,09,18,9.70
2018,04,23,09,19,9.70
2018,04,23,09,20,9.70
2018,04,23,09,21,9.70
2018,04,23,09,22,9.70
2018,04,23,09,23,9.70
2018,04,23,09,24,9.70
2018,04,23,09,25,9.70
2018,04,23,09,26,9.70
2018,04,23,09,27,9.70
2018,04,23,09,28,9.70
2018,04,23,09,29,9.80
2018,04,23,09,30,9.80
2018,04,23,09,31,9.80
2018,04,23,09,32,9.80
2018,04,23,09,33,9.80
2018,04,23,09,34,9.80
2018,04,23,09,35,9.80
2018,04,23,09,36,9.90
2018,04,23,09,37,9.90
2018,04,23,09,38,9.90
2018,04,23,09,39,10.00
2018,04,23,09,40,10.00
2018,04,23,09,41,10.10
2018,04,23,09,42,10.10
2018,04,23,09,43,10.10
2018,04,23,09,44,10.10
2018,04,23,09,45,10.20
2018,04,23,09,46,10.20
2018,04,23,09,47,10.20
2018,04,23,09,48,10.20
2018,04,23,09,49,10.20
2018,04,23,09,50,10.30
2018,04,23,09,51,10.30
2018,04,23,09,52,10.30
2018,04,23,09,53,10.30
2018,04,23,09,54,10.30
2018,04,23,09,55,10.40
2018,04,23,09,56,10.40
2018,04,23,09,57,10.50
2018,04,23,09,58,10.50
2018,04,23,09,59,10.60
2018,04,23,10,00,10.60
2018,04,23,10,01,10.70
2018,04,23,10,02,10.70
2018,04,23,10,03,10.70
2018,04,23,10,04,10.80
2018,04,23,10,05,10.80
2018,04,23,10,06,10.80
2018,04,23,10,07,10.90
2018,04,23,10,08,10.90
2018,04,23,10,09,10.90
2018,04,23,10,10,11.00
2018,04,23,10,11,11.00
2018,04,23,10,12,11.00
2018,04,23,10,13,11.10
2018,04,23,10,14,11.10
2018,04,23,10,15,11.10
2018,04,23,10,16,11.20
2018,04,23,10,17,11.20
2018,04,23,10,18,11.30
2018,04,23,10,19,11.30
2018,04,23,10,20,11.40
2018,04,23,10,21,11.50
2018,04,23,10,22,11.50
2018,04,23,10,23,11.60
2018,04,23,10,24,11.70
2018,04,23,10,25,11.70
2018,04,23,10,26,11.70
2018,04,23,10,27,11.70
2018,04,23,10,28,11.80
2018,04,23,10,29,11.80
2018,04,23,10,30,11.90
2018,04,23,10,31,11.90
2018,04,23,10,32,12.00
2018,04,23,10,33,12.10
2018,04,23,10,34,12.10
2018,04,23,10,35,12.20
2018,04,23,10,36,12.30
2018,04,23,10,37,12.30
2018,04,23,10,38,12.30
2018,04,23,10,39,12.30
2018,04,23,10,40,12.30
2018,04,23,10,41,12.30
2018,04,23,10,42,12.30
2018,04,23,10,43,12.30
2018,04,23,10,44,12.30
2018,04,23,10,45,12.30
2018,04,23,10,46,12.30
2018,04,23,10,47,12.40
2018,04,23,10,48,12.40
2018,04,23,10,49,12.40
2018,04,23,10,50,12.40
2018,04,23,10,51,12.50
2018,04,23,10,52,12.50
2018,04,23,10,53,12.60
2018,04,23,10,54,12.60
2018,04,23,10,55,12.60
2018,04,23,10,56,12.60
2018,04,23,10,57,12.70
2018,04,23,10,58,12.70
2018,04,23,10,59,12.70
2018,04,23,11,00,12.70
2018,04,23,11,01,12.70
2018,04,23,11,02,12.70
2018,04,23,11,03,12.70
2018,04,23,11,04,12.70
2018,04,23,11,05,12.70
2018,04,23,11,06,12.80
2018,04,23,11,07,12.80
2018,04,23,11,08,12.90
2018,04,23,11,09,12.90
2018,04,23,11,10,13.00
2018,04,23,11,11,13.10
2018,04,23,11,12,13.10
2018,04,23,11,13,13.20
2018,04,23,11,14,13.20
2018,04,23,11,15,13.20
2018,04,23,11,16,13.30
2018,04,23,11,17,13.30
2018,04,23,11,18,13.30
2018,04,23,11,19,13.30
2018,04,23,11,20,13.30
2018,04,23,11,21,13.30
2018,04,23,11,22,13.30
2018,04,23,11,23,13.30
2018,04,23,11,24,13.30
2018,04,23,11,25,13.40
2018,04,23,11,26,13.50
2018,04,23,11,27,13.50
2018,04,23,11,28,13.60
2018,04,23,11,29,13.60
2018,04,23,11,30,13.70
2018,04,23,11,31,13.70
2018,04,23,11,32,13.60
2018,04,23,11,33,13.50
2018,04,23,11,34,13.40
2018,04,23,11,35,13.40
2018,04,23,11,36,13.40
2018,04,23,11,37,13.50
2018,04,23,11,38,13.50
2018,04,23,11,39,13.60
2018,04,23,11,40,13.60
2018,04,23,11,41,13.70
2018,04,23,11,42,13.70
2018,04,23,11,43,13.80
2018,04,23,11,44,13.80
2018,04,23,11,45,13.90
2018,04,23,11,46,13.90
2018,04,23,11,47,13.90
2018,04,23,11,48,13.90
2018,04,23,11,49,13.90
2018,04,23,11,50,13.90
2018,04,23,11,51,13.90
2018,04,23,11,52,14.00
2018,04,23,11,53,14.00
2018,04,23,11,54,14.00
2018,04,23,11,55,14.20
2018,04,23,11,56,14.20
2018,04,23,11,57,14.20
2018,04,23,11,58,14.10
2018,04,23,11,59,14.10
2018,04,23,12,00,14.20
2018,04,23,12,01,14.30
2018,04,23,12,02,14.30
2018,04,23,12,03,14.30
2018,04,23,12,04,14.40
2018,04,23,12,05,14.40
2018,04,23,12,06,14.40
2018,04,23,12,07,14.40
2018,04,23,12,08,14.30
2018,04,23,12,09,14.30
2018,04,23,12,10,14.30
2018,04,23,12,11,14.30
2018,04,23,12,12,14.20
2018,04,23,12,13,14.10
2018,04,23,12,14,14.00
2018,04,23,12,15,13.90
2018,04,23,12,16,13.70
2018,04,23,12,17,13.60
2018,04,23,12,18,13.50
2018,04,23,12,19,13.40
2018,04,23,12,20,13.40
2018,04,23,12,21,13.50
2018,04,23,12,22,13.60
2018,04,23,12,23,13.80
2018,04,23,12,24,13.90
2018,04,23,12,25,14.10
2018,04,23,12,26,14.20
2018,04,23,12,27,14.40
2018,04,23,12,28,14.50
2018,04,23,12,29,14.60
2018,04,23,12,30,14.70
2018,04,23,12,31,14.70
2018,04,23,12,32,14.70
2018,04,23,12,33,14.80
2018,04,23,12,34,14.80
2018,04,23,12,35,14.80
2018,04,23,12,36,14.90
2018,04,23,12,37,14.90
2018,04,23,12,38,15.00
2018,04,23,12,39,15.10
2018,04,23,12,40,15.10
2018,04,23,12,41,15.10
2018,04,23,12,42,15.20
2018,04,23,12,43,15.20
2018,04,23,12,44,15.30
2018,04,23,12,45,15.30
2018,04,23,12,46,15.30
2018,04,23,12,47,15.40
2018,04,23,12,48,15.50
2018,04,23,12,49,15.50
2018,04,23,12,50,15.60
2018,04,23,12,51,15.60
2018,04,23,12,52,15.70
2018,04,23,12,53,15.80
2018,04,23,12,54,15.80
2018,04,23,12,55,15.90
2018,04,23,12,56,15.90
2018,04,23,12,57,16.00
2018,04,23,12,58,16.10
2018,04,23,12,59,16.10
2018,04,23,13,00,16.10
2018,04,23,13,01,16.20
2018,04,23,13,02,16.10
2018,04,23,13,03,16.10
2018,04,23,13,04,16.10
2018,04,23,13,05,16.10
2018,04,23,13,06,16.10
2018,04,23,13,07,16.10
2018,04,23,13,08,16.10
2018,04,23,13,09,16.20
2018,04,23,13,10,16.20
2018,04,23,13,11,16.30
2018,04,23,13,12,16.40
2018,04,23,13,13,16.50
2018,04,23,13,14,16.70
2018,04,23,13,15,16.80
2018,04,23,13,16,16.90
2018,04,23,13,17,16.90
2018,04,23,13,18,17.00
2018,04,23,13,19,17.10
2018,04,23,13,20,17.20
2018,04,23,13,21,17.20
2018,04,23,13,22,17.30
2018,04,23,13,23,17.30
2018,04,23,13,24,17.20
2018,04,23,13,25,17.10
2018,04,23,13,26,17.00
2018,04,23,13,27,16.90
2018,04,23,13,28,16.90
2018,04,23,13,29,16.80
2018,04,23,13,30,16.80
2018,04,23,13,31,16.70
2018,04,23,13,32,16.70
2018,04,23,13,33,16.70
2018,04,23,13,34,16.80
2018,04,23,13,35,16.90
2018,04,23,13,36,16.90
2018,04,23,13,37,16.80
2018,04,23,13,38,16.80
2018,04,23,13,39,16.70
2018,04,23,13,40,16.60
2018,04,23,13,41,16.50
2018,04,23,13,42,16.40
2018,04,23,13,43,16.30
2018,04,23,13,44,16.20
2018,04,23,13,45,16.10
2018,04,23,13,46,16.00
2018,04,23,13,47,16.00
2018,04,23,13,48,16.00
2018,04,23,13,49,15.90
2018,04,23,13,50,15.90
2018,04,23,13,51,15.90
2018,04,23,13,52,15.90
2018,04,23,13,53,15.90
2018,04,23,13,54,15.90
2018,04,23,13,55,15.90
2018,04,23,13,56,15.90
2018,04,23,13,57,15.90
2018,04,23,13,58,15.80
2018,04,23,13,59,15.80
2018,04,23,14,00,15.80
2018,04,23,14,01,15.80
2018,04,23,14,02,15.80
2018,04,23,14,03,15.80
2018,04,23,14,04,15.70
2018,04,23,14,05,15.70
2018,04,23,14,06,15.70
2018,04,23,14,07,15.70
2018,04,23,14,08,15.70
2018,04,23,14,09,15.70
2018,04,23,14,10,15.80
2018,04,23,14,11,15.90
2018,04,23,14,12,15.90
2018,04,23,14,13,15.90
2018,04,23,14,14,15.90
2018,04,23,14,15,15.90
2018,04,23,14,16,15.90
2018,04,23,14,17,15.90
2018,04,23,14,18,15.90
2018,04,23,14,19,15.90
2018,04,23,14,20,15.90
2018,04,23,14,21,15.90
2018,04,23,14,22,15.80
2018,04,23,14,23,15.80
2018,04,23,14,24,15.80
2018,04,23,14,25,15.80
2018,04,23,14,26,15.80
2018,04,23,14,27,15.80
2018,04,23,14,28,15.80
2018,04,23,14,29,15.90
2018,04,23,14,30,15.90
2018,04,23,14,31,16.00
2018,04,23,14,32,16.10
2018,04,23,14,33,16.10
2018,04,23,14,34,16.10
2018,04,23,14,35,16.10
2018,04,23,14,36,16.10
2018,04,23,14,37,16.20
2018,04,23,14,38,16.30
2018,04,23,14,39,16.40
2018,04,23,14,40,16.40
2018,04,23,14,41,16.50
2018,04,23,14,42,16.60
2018,04,23,14,43,16.70
2018,04,23,14,44,16.80
2018,04,23,14,45,16.90
2018,04,23,14,46,16.90
2018,04,23,14,47,16.90
2018,04,23,14,48,16.90
2018,04,23,14,49,16.90
2018,04,23,14,50,16.90
2018,04,23,14,51,16.80
2018,04,23,14,52,16.80
2018,04,23,14,53,16.80
2018,04,23,14,54,16.80
2018,04,23,14,55,16.80
2018,04,23,14,56,16.80
2018,04,23,14,57,16.70
2018,04,23,14,58,16.60
2018,04,23,14,59,16.50
2018,04,23,15,00,16.50
2018,04,23,15,01,16.40
2018,04,23,15,02,16.40
2018,04,23,15,03,16.40
2018,04,23,15,04,16.40
2018,04,23,15,05,16.50
2018,04,23,15,06,16.60
2018,04,23,15,07,16.60
2018,04,23,15,08,16.60
2018,04,23,15,09,16.60
2018,04,23,15,10,16.60
2018,04,23,15,11,16.60
2018,04,23,15,12,16.70
2018,04,23,15,13,16.70
2018,04,23,15,14,16.80
2018,04,23,15,15,17.00
2018,04,23,15,16,17.10
2018,04,23,15,17,17.20
2018,04,23,15,18,17.30
2018,04,23,15,19,17.30
2018,04,23,15,20,17.30
2018,04,23,15,21,17.20
2018,04,23,15,22,17.10
2018,04,23,15,23,16.90
2018,04,23,15,24,16.90
2018,04,23,15,25,16.80
2018,04,23,15,26,16.80
2018,04,23,15,27,16.80
2018,04,23,15,28,16.70
2018,04,23,15,29,16.70
2018,04,23,15,30,16.60
2018,04,23,15,31,16.60
2018,04,23,15,32,16.60
2018,04,23,15,33,16.60
2018,04,23,15,34,16.50
2018,04,23,15,35,16.50
2018,04,23,15,36,16.40
2018,04,23,15,37,16.40
2018,04,23,15,38,16.40
2018,04,23,15,39,16.40
2018,04,23,15,40,16.50
2018,04,23,15,41,16.50
2018,04,23,15,42,16.50
2018,04,23,15,43,16.60
2018,04,23,15,44,16.60
2018,04,23,15,45,16.60
2018,04,23,15,46,16.70
2018,04,23,15,47,16.80
2018,04,23,15,48,16.90
2018,04,23,15,49,16.90
2018,04,23,15,50,16.90
2018,04,23,15,51,16.90
2018,04,23,15,52,17.00
2018,04,23,15,53,17.00
2018,04,23,15,54,17.10
2018,04,23,15,55,17.10
2018,04,23,15,56,17.20
2018,04,23,15,57,17.20
2018,04,23,15,58,17.30
2018,04,23,15,59,17.30
2018,04,23,16,00,17.30
2018,04,23,16,01,17.30
2018,04,23,16,02,17.40
2018,04,23,16,03,17.40
2018,04,23,16,04,17.50
2018,04,23,16,05,17.50
2018,04,23,16,06,17.50
2018,04,23,16,07,17.50
2018,04,23,16,08,17.50
2018,04,23,16,09,17.50
2018,04,23,16,10,17.50
2018,04,23,16,11,17.50
2018,04,23,16,12,17.40
2018,04,23,16,13,17.40
2018,04,23,16,14,17.40
2018,04,23,16,15,17.40
2018,04,23,16,16,17.40
2018,04,23,16,17,17.40
2018,04,23,16,18,17.50
2018,04,23,16,19,17.50
2018,04,23,16,20,17.60
2018,04,23,16,21,17.70
2018,04,23,16,22,17.70
2018,04,23,16,23,17.70
2018,04,23,16,24,17.70
2018,04,23,16,25,17.60
2018,04,23,16,26,17.70
2018,04,23,16,27,17.60
2018,04,23,16,28,17.60
2018,04,23,16,29,17.60
2018,04,23,16,30,17.50
2018,04,23,16,31,17.50
2018,04,23,16,32,17.50
2018,04,23,16,33,17.50
2018,04,23,16,34,17.50
2018,04,23,16,35,17.40
2018,04,23,16,36,17.40
2018,04,23,16,37,17.40
2018,04,23,16,38,17.40
2018,04,23,16,39,17.30
2018,04,23,16,40,17.30
2018,04,23,16,41,17.30
2018,04,23,16,42,17.30
2018,04,23,16,43,17.40
2018,04,23,16,44,17.50
2018,04,23,16,45,17.50
2018,04,23,16,46,17.50
2018,04,23,16,47,17.50
2018,04,23,16,48,17.60
2018,04,23,16,49,17.60
2018,04,23,16,50,17.60
2018,04,23,16,51,17.70
2018,04,23,16,52,17.70
2018,04,23,16,53,17.80
2018,04,23,16,54,17.90
2018,04,23,16,55,18.00
2018,04,23,16,56,18.10
2018,04,23,16,57,18.10
2018,04,23,16,58,18.20
2018,04,23,16,59,18.20
2018,04,23,17,00,18.30
2018,04,23,17,01,18.30
2018,04,23,17,02,18.30
2018,04,23,17,03,18.40
2018,04,23,17,04,18.40
2018,04,23,17,05,18.40
2018,04,23,17,06,18.40
2018,04,23,17,07,18.30
2018,04,23,17,08,18.20
2018,04,23,17,09,18.20
2018,04,23,17,10,18.20
2018,04,23,17,11,18.20
2018,04,23,17,12,18.20
2018,04,23,17,13,18.20
2018,04,23,17,14,18.20
2018,04,23,17,15,18.20
2018,04,23,17,16,18.20
2018,04,23,17,17,18.20
2018,04,23,17,18,18.20
2018,04,23,17,19,18.20
2018,04,23,17,20,18.20
2018,04,23,17,21,18.20
2018,04,23,17,22,18.20
2018,04,23,17,23,18.10
2018,04,23,17,24,18.00
2018,04,23,17,25,17.90
2018,04,23,17,26,17.80
2018,04,23,17,27,17.70
2018,04,23,17,28,17.60
2018,04,23,17,29,17.50
2018,04,23,17,30,17.40
2018,04,23,17,31,17.30
2018,04,23,17,32,17.30
2018,04,23,17,33,17.30
2018,04,23,17,34,17.20
2018,04,23,17,35,17.20
2018,04,23,17,36,17.20
2018,04,23,17,37,17.30
2018,04,23,17,38,17.30
2018,04,23,17,39,17.30
2018,04,23,17,40,17.30
2018,04,23,17,41,17.30
2018,04,23,17,42,17.20
2018,04,23,17,43,17.10
2018,04,23,17,44,17.00